This demonstration page uses our WeatherBlox Daily Observations layout. Learn more.

Left ArrowRight Arrow

Hourly Observations for September 2, 2021

Temp ( °F °C ) Dew Point ( °F °C ) Humidity (%) Winds ( mph kmh ) Pressure ( in mb ) Visibility ( mi km ) Precip ( " mm )
12:53 am 00:53 Clear 67 19.4 49 9.4 53 53 Calm 29.82 1010 10 16 0.00 0.00
1:53 am 01:53 Clear 63 17.2 48 8.9 58 58 Calm 29.83 1010 10 16 0.00 0.00
2:53 am 02:53 Mostly Clear 62 16.7 48 8.9 60 60 Calm 29.85 1011 10 16 0.00 0.00
3:53 am 03:53 Mostly Clear 59 15 47 8.3 64 64 Calm 29.85 1011 10 16 0.00 0.00
4:53 am 04:53 Mostly Clear 59 15 47 8.3 64 64 Calm 29.86 1011 10 16 0.00 0.00
5:53 am 05:53 Cloudy 57 13.9 46 7.8 67 67 Calm 29.87 1012 10 16 0.00 0.00
6:53 am 06:53 Cloudy 56 13.3 47 8.3 72 72 Calm 29.89 1012 9 14 0.00 0.00
7:53 am 07:53 Mostly Sunny 59 15 46 7.8 62 62 Calm 29.90 1013 10 16 0.00 0.00
8:53 am 08:53 Sunny 63 17.2 46 7.8 54 54 Calm 29.91 1013 10 16 0.00 0.00
9:53 am 09:53 Sunny 67 19.4 48 8.9 51 51 Calm 29.91 1013 9 14 0.00 0.00
10:53 am 10:53 Sunny 72 22.2 48 8.9 43 43 Calm 29.90 1013 10 16 0.00 0.00
11:53 am 11:53 Sunny 77 25 47 8.3 35 35 VRB 3 6 29.88 1012 9 14 0.00 0.00
12:53 pm 12:53 Sunny 81 27.2 45 7.2 28 28 Calm 29.87 1011 10 16 0.00 0.00
1:53 pm 13:53 Sunny 85 29.4 41 5 21 21 ESE 3 6 29.85 1011 10 16 0.00 0.00
2:53 pm 14:53 Sunny 86 30 38 3.3 18 18 SSW 6 9 29.83 1010 10 16 0.00 0.00
3:53 pm 15:53 Sunny 87 30.6 40 4.4 19 19 VRB 5 7 29.81 1010 10 16 0.00 0.00
4:53 pm 16:53 Sunny 89 31.7 35 1.7 15 15 S 8 13 29.80 1009 10 16 0.00 0.00
5:53 pm 17:53 Sunny 88 31.1 33 0.6 14 14 SSE 9 15 29.80 1009 10 16 0.00 0.00
6:53 pm 18:53 Sunny 84 28.9 40 4.4 21 21 SSE 8 13 29.81 1010 10 16 0.00 0.00
7:53 pm 19:53 Clear 78 25.6 41 5 27 27 SSE 7 11 29.83 1010 10 16 0.00 0.00
8:53 pm 20:53 Cloudy 75 23.9 41 5 29 29 ESE 3 6 29.85 1011 10 16 0.00 0.00
9:53 pm 21:53 Cloudy 71 21.7 42 5.6 35 35 Calm 29.87 1012 10 16 0.00 0.00
10:53 pm 22:53 Mostly Clear 69 20.6 43 6.1 39 39 Calm 29.88 1012 10 16 0.00 0.00
11:53 pm 23:53 Clear 65 18.3 43 6.1 45 45 Calm 29.89 1012 10 16 0.00 0.00

Powered by AerisWeather